Regional Weather Roundup
Issued by NWS New Orleans/Baton Rouge, LA

Home | Current Version | Previous Version | Text Only | Print | Product List | Glossary Off
Versions: 1 2 3 4 5 6 7 8 9 10 11 12 13 14 15 16 17 18 19 20 21 22 23 24 25 26 27 28 29 30 31 32 33 34 35 36 37 38 39 40 41 42 43 44 45 46 47 48 49 50

139
ASUS44 KLIX 250401
RWRLIX
NEW ORLEANS REGIONAL WEATHER ROUNDUP
NATIONAL WEATHER SERVICE NEW ORLEANS LA
1100 PM CDT THU APR 24 2014

NOTE: "FAIR" INDICATES FEW OR NO CLOUDS BELOW 12,000 FEET WITH NO
      SIGNIFICANT WEATHER AND/OR OBSTRUCTIONS TO VISIBILITY.
      SKY/WX - SKY CONDITION AND SIGNIFICANT WEATHER.
      TMP - AIR TEMPERATURE.     DP    - DEWPOINT TEMPERATURE.
      RH  - RELATIVE HUMIDITY.   PRES  - PRESSURE.
      HI  - HEAT INDEX.          WCI   - WIND CHILL INDEX.

*  THESE STATIONS ARE NOT NWS OR FAA STATIONS AND ARE NOT UNDER
   NWS QUALITY CONTROL.

LAZ038-040-048-061>063-065>067-069-250500-
SOUTHEAST LOUISIANA

CITY           SKY/WX    TMP DP  RH WIND       PRES   REMARKS
N.O. AUDUBON     N/A     73  67  81 MISG        N/A
N.O. INTL ARPT PTCLDY    72  67  84 S10       29.93S
N.O. LAKEFRONT MOCLDY    73  67  81 SW13      29.94R
N.O. DOWNTOWN*   N/A     73  64  73 S9        29.94S
SLIDELL        PTCLDY    72  66  81 SW6       29.93R
BATON ROUGE    CLOUDY    73  66  78 SW13      29.93R
BOOTHVILLE     CLOUDY    72  68  87 S10       29.96R
BELLE CHASSE   MOCLDY    70  65  84 SW6       29.93S
BOGALUSA*        N/A     72  65  79 SW3       29.94R
GALLIANO*      NOT AVBL
NEW ROADS*     NOT AVBL
GONZALES*      NOT AVBL
HAMMOND*       NOT AVBL
HOUMA*         NOT AVBL
PORT FOURCHON* PTCLDY    73  70  88 SW5       29.98R

$$

MSZ070-080>082-250500-
SOUTHERN MISSISSIPPI

CITY           SKY/WX    TMP DP  RH WIND       PRES   REMARKS
MCCOMB         CLOUDY    72  64  76 SW9G17    29.92R
GULFPORT       CLEAR     74  67  78 S8        29.93R
BILOXI         NOT AVBL
PASCAGOULA     MOCLDY    70  67  90 SW5       29.94S

$$

COASTAL OBSERVATIONS
LAKE AND NEARSHORE STATIONS

STATION/POSITION TIME  TEMP    WIND        PRES    WAVE
                       AIR SEA DIR/SP/G            HT/PER
                 (UTC) (F)     (DEG/KT/KT) (MB)    (FT/S)
PASCAGOULA       0300   71     190/ 13/ 16 1013.0
WAVELAND YACHT   0300   72 78  210/  5/ 10 1012.8
GRAND ISLE       0300   73 73  210/  6/  8 1014.8
SOUTHWEST PASS   0300   70 62  190/  7/  8 1014.6
NEW CANAL        0300   73 71  210/  4/  5 1014.0
SHELL BEACH      0300   72 70  190/  7/ 11 1013.6

OFFSHORE STATIONS

STATION/POSITION TIME  TEMP    WIND        PRES    WAVE
                       AIR SEA DIR/SP/G            HT/PER
                 (UTC) (F)     (DEG/KT/KT) (MB)    (FT/S)
64 S DAUPHIN ISL 0325   72 72  170/  8/ 10 1014.2

$$




USA.gov is the U.S. government's official web portal to all federal, state and local government web resources and services.